FW8148 Weather Reports


Display with metric or nautical units.
time (UTC)temp
F
wind
direction
speed
MPH
gust
MPH
rain 1hr
in
rain 24hr
in
rain mn
in
humidity
%
barometer
mb
20260506134505 54 45 0.0 4.0 0.00 0.27 0.08 78 1009.8
20260506133603 54 42 1.0 4.0 0.00 0.27 0.08 76 1009.8
20260506132705 54 34 1.0 2.0 0.00 0.27 0.08 76 1009.9
20260506131803 55 45 1.0 3.0 0.00 0.27 0.08 75 1009.7
20260506131117 56 44 1.0 3.0 0.00 0.27 0.08 74 1009.8
20260506130008 57 42 1.0 6.0 0.00 0.27 0.08 73 1009.5
20260506125405 57 42 1.0 3.0 0.00 0.27 0.08 69 1009.6
20260506124503 58 36 1.0 6.0 0.00 0.27 0.08 69 1009.4
20260506123603 58 35 1.0 3.0 0.00 0.27 0.08 69 1009.1
20260506122703 57 43 1.0 4.0 0.00 0.27 0.08 71 1009.1
20260506121803 59 50 1.0 3.0 0.00 0.27 0.08 67 1009.3
20260506120903 57 31 2.0 8.0 0.00 0.27 0.08 68 1009.3
20260506120003 57 37 2.0 4.0 0.00 0.27 0.08 68 1009.2
20260506115618 56 31 2.0 4.0 0.00 0.27 0.08 68 1009.2
20260506114503 56 20 2.0 6.0 0.00 0.27 0.08 66 1009.3
20260506113603 57 39 1.0 4.0 0.00 0.27 0.08 70 1009.3
20260506112703 56 44 2.0 6.0 0.00 0.27 0.08 71 1009.2
20260506111803 55 52 2.0 6.0 0.00 0.27 0.08 73 1009.2
20260506110903 55 45 1.0 7.0 0.00 0.27 0.08 73 1009.3
20260506110003 55 45 2.0 7.0 0.00 0.27 0.08 75 1009.3
20260506105403 55 37 2.0 6.0 0.00 0.27 0.08 74 1009.1
20260506104503 55 45 2.0 6.0 0.00 0.27 0.08 75 1009.3
20260506103603 55 25 1.0 6.0 0.00 0.27 0.08 76 1009.3
20260506102704 54 38 1.0 3.0 0.00 0.27 0.08 78 1009.2
20260506102017 54 41 1.0 6.0 0.00 0.27 0.08 80 1009.2
20260506100905 53 42 3.0 6.0 0.00 0.27 0.08 80 1009.1
20260506100003 52 34 2.0 8.0 0.00 0.27 0.08 82 1009.1
20260506095617 53 24 2.0 8.0 0.00 0.27 0.08 84 1009.0
20260506094503 52 41 2.0 6.0 0.00 0.27 0.08 85 1009.0
20260506093818 51 37 2.0 8.0 0.00 0.27 0.08 86 1009.1
20260506092703 51 34 2.0 9.0 0.00 0.27 0.08 87 1009.0
20260506092017 50 36 2.0 6.0 0.00 0.27 0.08 86 1008.9
20260506090903 50 20 2.0 8.0 0.00 0.27 0.08 87 1009.0
20260506090217 50 29 2.0 8.0 0.00 0.27 0.08 88 1009.1
20260506085403 50 30 2.0 4.0 0.00 0.27 0.08 89 1008.9
20260506084503 49 31 2.0 6.0 0.00 0.27 0.08 89 1009.1
20260506083818 49 31 2.0 6.0 0.00 0.27 0.08 89 1009.0
20260506082703 49 32 2.0 6.0 0.00 0.27 0.08 89 1008.8
20260506081803 49 33 2.0 7.0 0.00 0.27 0.08 88 1008.8
20260506080903 49 37 2.0 7.0 0.00 0.27 0.08 89 1008.6
20260506072703 49 35 2.0 10.0 0.00 0.27 0.08 91 1008.3
20260506071803 49 29 2.0 7.0 0.00 0.27 0.08 92 1008.2
20260506070903 49 34 2.0 7.0 0.00 0.27 0.08 92 1008.0
20260506062017 48 41 2.0 7.0 0.01 0.27 0.08 96 1007.6
20260506060903 48 40 2.0 8.0 0.01 0.27 0.08 97 1007.7
20260506050903 48 37 2.0 6.0 0.00 0.26 0.07 99 1007.1
20260506044503 48 44 2.0 4.0 0.01 0.26 0.07 99 1007.0
20260506043603 48 47 1.0 3.0 0.02 0.26 0.07 99 1007.0
20260506042703 48 43 1.0 4.0 0.02 0.26 0.07 99 1007.0
20260506041803 48 36 2.0 4.0 0.02 0.26 0.07 99 1007.0
20260506040903 48 34 1.0 4.0 0.02 0.26 0.07 99 1006.9
20260506040003 49 39 1.0 3.0 0.02 0.25 0.06 99 1006.8
20260506035403 49 40 1.0 4.0 0.02 0.25 0.06 99 1007.1
20260506034716 49 27 1.0 4.0 0.02 0.25 0.06 99 1006.9
20260506033603 49 31 1.0 4.0 0.02 0.24 0.05 99 1006.9
20260506032703 49 44 1.0 4.0 0.02 0.24 0.05 99 1006.9
20260506032016 49 49 1.0 6.0 0.02 0.24 0.05 99 1007.0
20260506030903 49 40 1.0 6.0 0.02 0.24 0.05 99 1006.9
20260506030003 49 43 2.0 6.0 0.01 0.23 0.04 99 1006.9
20260506025403 49 45 1.0 6.0 0.01 0.23 0.04 99 1006.8
20260506024503 49 42 1.0 4.0 0.01 0.23 0.04 99 1006.9
20260506023603 50 35 1.0 3.0 0.00 0.22 0.03 99 1006.8
20260506022703 50 38 1.0 3.0 0.00 0.22 0.03 99 1006.8
20260506021803 50 35 1.0 4.0 0.01 0.22 0.03 99 1006.8
20260506020903 50 39 1.0 3.0 0.01 0.22 0.03 99 1006.8
20260506020217 50 33 1.0 3.0 0.01 0.22 0.03 99 1006.7
20260506015405 50 27 1.0 4.0 0.01 0.22 0.03 99 1006.8
20260506014717 50 31 1.0 4.0 0.01 0.22 0.03 99 1006.6
20260506013817 50 19 1.0 3.0 0.01 0.22 0.03 99 1006.6
20260506012703 50 26 2.0 4.0 0.01 0.22 0.03 99 1006.7
20260506011803 50 26 1.0 3.0 0.01 0.21 0.02 99 1006.7
20260506010903 50 25 1.0 3.0 0.01 0.21 0.02 99 1006.8
20260506010003 50 16 1.0 3.0 0.02 0.21 0.02 99 1006.7
20260506005618 50 16 1.0 4.0 0.02 0.21 0.02 99 1006.8
20260506004503 50 29 1.0 4.0 0.02 0.21 0.02 99 1006.4
20260506003603 50 33 2.0 11.0 0.02 0.21 0.02 99 1006.5
20260506002918 51 32 2.0 7.0 0.02 0.21 0.02 99 1006.6
20260506001803 51 29 2.0 7.0 0.01 0.20 0.01 99 1006.7
20260506000903 51 21 1.0 6.0 0.01 0.20 0.01 99 1006.8
20260506000003 51 25 1.0 4.0 0.00 0.19 0.00 99 1006.9
20260505235403 51 30 1.0 4.0 0.00 0.19 0.00 99 1007.1
20260505234717 51 33 2.0 6.0 0.00 0.19 0.00 99 1006.8
20260505233603 51 38 1.0 7.0 0.00 0.19 0.00 98 1006.9
20260505232703 51 34 2.0 7.0 0.00 0.19 0.00 98 1006.9
20260505232017 51 31 1.0 7.0 0.00 0.19 0.00 98 1007.0
20260505230903 51 30 2.0 8.0 0.00 0.19 0.00 99 1006.9
20260505230003 51 39 1.0 4.0 0.00 0.19 0.00 99 1007.0
20260505225403 51 33 1.0 4.0 0.01 0.19 0.00 99 1007.1
20260505224503 51 30 2.0 8.0 0.01 0.19 0.00 99 1007.1
20260505223603 52 29 2.0 8.0 0.01 0.19 0.00 99 1007.0
20260505222703 52 34 2.0 3.0 0.01 0.19 0.00 99 1006.7
20260505221803 52 31 1.0 4.0 0.01 0.19 0.00 99 1006.8
20260505220903 52 30 1.0 4.0 0.02 0.19 0.00 99 1006.9
20260505220004 52 38 1.0 3.0 0.02 0.19 0.00 99 1006.9
20260505215403 52 31 1.0 6.0 0.02 0.18 0.18 99 1006.8
20260505214503 52 28 2.0 7.0 0.02 0.18 0.18 99 1006.9
20260505213817 52 35 1.0 9.0 0.03 0.18 0.18 99 1007.0
20260505212705 52 38 2.0 7.0 0.03 0.18 0.18 99 1007.0
20260505211805 52 26 1.0 6.0 0.03 0.18 0.18 99 1007.0
20260505210903 52 28 1.0 8.0 0.02 0.17 0.17 99 1006.9
20260505210003 52 39 1.0 6.0 0.03 0.17 0.17 99 1007.1
20260505205403 52 28 1.0 6.0 0.02 0.16 0.16 99 1007.1
20260505204503 52 26 1.0 7.0 0.02 0.16 0.16 99 1007.1
20260505203603 52 32 2.0 7.0 0.01 0.15 0.15 99 1007.1
20260505202703 52 32 1.0 3.0 0.01 0.15 0.15 99 1007.2
20260505201803 52 35 1.0 3.0 0.01 0.15 0.15 99 1006.9
20260505200905 52 24 1.0 4.0 0.01 0.15 0.15 99 1007.0
20260505200003 52 32 1.0 6.0 0.00 0.14 0.14 99 1006.9
20260505195403 52 28 1.0 6.0 0.00 0.14 0.14 99 1007.0
20260505194503 52 26 1.0 6.0 0.01 0.15 0.14 99 1007.0
20260505193817 52 38 1.0 4.0 0.01 0.15 0.14 99 1006.7
20260505192703 52 29 1.0 6.0 0.02 0.15 0.14 99 1006.6
20260505191803 52 36 1.0 4.0 0.02 0.15 0.14 99 1006.3
20260505190903 52 30 1.0 6.0 0.03 0.15 0.14 99 1006.4
20260505190003 52 35 1.0 6.0 0.03 0.15 0.14 99 1006.4
20260505185403 52 31 1.0 6.0 0.04 0.15 0.14 99 1006.4
20260505184503 52 30 2.0 6.0 0.04 0.15 0.13 99 1006.4
20260505183603 53 34 1.0 3.0 0.04 0.17 0.13 99 1006.3
20260505182703 53 24 1.0 4.0 0.04 0.17 0.12 99 1006.4
20260505182017 53 40 1.0 3.0 0.04 0.18 0.12 99 1006.3
20260505180903 53 27 1.0 4.0 0.03 0.18 0.11 98 1006.3
20260505180003 53 25 1.0 6.0 0.03 0.19 0.11 98 1006.3
20260505175403 53 23 1.0 6.0 0.03 0.18 0.10 98 1006.4
20260505174503 53 26 1.0 4.0 0.02 0.17 0.09 98 1006.5
20260505173603 53 23 2.0 6.0 0.02 0.17 0.09 98 1006.3
20260505172703 53 30 1.0 6.0 0.01 0.16 0.08 98 1006.5
20260505171803 53 36 1.0 4.0 0.01 0.16 0.08 98 1006.6
20260505170903 54 33 1.0 4.0 0.01 0.16 0.08 98 1006.6
20260505170217 54 29 1.0 6.0 0.01 0.16 0.08 98 1006.7
20260505165617 54 27 1.0 6.0 0.00 0.15 0.07 98 1006.5
20260505164503 54 27 1.0 4.0 0.01 0.15 0.07 98 1006.7
20260505163817 54 26 1.0 4.0 0.01 0.15 0.07 98 1006.7
20260505162705 54 38 1.0 4.0 0.02 0.15 0.07 98 1006.6
20260505161803 54 25 1.0 6.0 0.02 0.15 0.07 98 1006.7
20260505160903 54 33 2.0 4.0 0.02 0.15 0.07 98 1006.5
20260505160217 54 31 1.0 4.0 0.02 0.15 0.07 98 1006.7
20260505152703 54 34 1.0 6.0 0.03 0.13 0.05 98 1006.7
20260505151803 54 24 2.0 7.0 0.04 0.13 0.05 98 1006.7
20260505150903 54 24 1.0 4.0 0.04 0.13 0.05 98 1006.7
20260505140218 54 17 1.0 7.0 0.01 0.09 0.01 97 1007.0